Terminal Aerodrome Forecast
Issued by NWS Spokane, WA

Home | Current Version | Previous Version | Text Only | Print | Product List | Glossary On
Versions: 1 2 3 4 5 6 7 8 9 10 11 12 13 14 15 16 17 18 19 20 21 22 23 24 25
000
FTUS46 KOTX 041727
TAFEAT
TAF
KEAT 041727Z 0418/0518 30009KT P6SM SCT080 BKN100 BKN200
     FM041900 26006KT P6SM SCT080 BKN150 BKN200
     FM050200 30011KT P6SM SCT150
     FM051000 31009KT P6SM SCT050 SCT100 BKN150=

USA.gov is the U.S. government's official web portal to all federal, state and local government web resources and services.